Location: Bartshausen
(51.8454°N, 9.8167°E)
Time: 06:35:28
(UTC+00:00)

SL-08 RB Rocket - Pass Details

Date: 08 November 2025
Orbit: 632 x 667 km, 97.8° (Epoch: 11 December)

Event Time Altitude Azimuth Distance (km) Brightness Sun altitude
Rises 04:44:19 0° 7° (N) 3,020 7.1 -16.1°
Reaches altitude 10° 04:46:44 10° 358° (N) 2,098 6.2 -15.7°
Maximum altitude 04:50:47 32° 296° (WNW) 1,136 4.4 -15.1°
Enters shadow 04:53:23 18° 245° (WSW) 1,594 5.2 -14.7°
